Location: Hope
(40.9110°N, 74.9680°W)
Time: 06:59:05
(UTC-04:00)

Envisat - Pass Details

Date: 30 January 2019
Orbit: 764 x 766 km, 98.2° (Epoch: 19 April)

Event Time Altitude Azimuth Distance (km) Brightness Sun altitude
Rises 18:29:15 0° 159° (SSE) 3,215 6.1 -14.3°
Reaches altitude 10° 18:31:32 10° 157° (SSE) 2,293 5.3 -14.8°
Maximum altitude 18:36:34 71° 74° (ENE) 811 2.9 -15.7°
Drops below altitude 10° 18:41:38 10° 352° (N) 2,311 5.5 -16.6°
Sets 18:43:57 0° 350° (N) 3,242 6.3 -17.1°
